Nairobi Jomo, Kenya

7:58 PM EAT on June 25, 2017 (GMT +0300)
Jomo Kenyatta International Airport

Weather History for HKJK - September, 2013

Change the Weather History Date:

Monday, September 9, 2013

  Actual Average (HKNW) Record (HKNW)
Temperature  
Mean Temperature 68 °F -  
Max Temperature 78 °F 73 °F 80 °F (2004)
Min Temperature 58 °F 57 °F 51 °F (2012)
Cooling Degree Days 3    
Growing Degree Days 18 (Base 50)    
Moisture  
Dew Point 54 °F    
Average Humidity 64    
Maximum Humidity 94    
Minimum Humidity 32    
Precipitation  
Precipitation 0.00 in - - ()
Sea Level Pressure  
Sea Level Pressure 30.19 in    
Wind  
Wind Speed 5 mph ()    
Max Wind Speed 17 mph    
Max Gust Speed -    
Visibility 7.2 miles    
Events      
Averages and records for this station are not official NWS values.
T = Trace of Precipitation, MM = Missing Value Source: Averaged Metar Reports

Daily Weather History Graph

Daily Weather History Graph

Search for Another Location

Airport or City:

Trip Planner

Search our weather history database for the weather conditions in past years. The results will help you decide how hot, cold, wet, or windy it might be!

Date:

Astronomy

Sep. 09, 2013 Rise Set
Actual Time 6:26 AM EAT 6:32 PM EAT
Civil Twilight 6:06 AM EAT 6:53 PM EAT
Nautical Twilight 5:42 AM EAT 7:17 PM EAT
Astronomical Twilight 5:17 AM EAT 7:41 PM EAT
Moon 9:18 AM EAT (9/9) 9:46 PM EAT (9/9)
Length of Visible Light 12h 47m
Length of Day
12h 05m
Waxing Crescent, 16% of the Moon is Illuminated
Sep 9
Waxing Crescent
Sep 12
First Quarter
Sep 19
Full
Sep 27
Last Quarter
Oct 5
New

Hourly Weather History & Observations

Time (EAT) Temp. Dew Point Humidity Pressure Visibility Wind Dir Wind Speed Gust Speed Precip Events Conditions
12:00 AM 60.8 °F 55.4 °F 82% 30.21 in 6.2 mi West 4.6 mph - N/A   Scattered Clouds
1:00 AM 60.8 °F 57.2 °F 88% 30.18 in 6.2 mi NW 3.5 mph - N/A   Mostly Cloudy
2:00 AM 60.8 °F 57.2 °F 88% 30.18 in 6.2 mi North 4.6 mph - N/A   Mostly Cloudy
2:30 AM 60.8 °F 57.2 °F 88% 30.18 in 6.2 mi North 4.6 mph - N/A   Mostly Cloudy
4:00 AM 59.0 °F 57.2 °F 94% 30.18 in 6.2 mi Calm Calm - N/A   Mostly Cloudy
5:00 AM 59.0 °F 57.2 °F 94% 30.21 in 6.2 mi Calm Calm - N/A   Mostly Cloudy
5:30 AM 59.0 °F 57.2 °F 94% 30.21 in 6.2 mi Calm Calm - N/A   Mostly Cloudy
7:00 AM 59.0 °F 57.2 °F 94% 30.24 in 6.2 mi Calm Calm - N/A   Overcast
8:00 AM 60.8 °F 57.2 °F 88% 30.24 in 6.2 mi Calm Calm - N/A   Overcast
9:00 AM 62 °F 56 °F 76%  in 19 mi SSE 6.9 mph - -   Overcast
9:30 AM 64.4 °F 55.4 °F 73% 30.27 in 6.2 mi SE 4.6 mph - N/A   Mostly Cloudy
10:00 AM 66.2 °F 55.4 °F 68% 30.27 in 6.2 mi South 6.9 mph - N/A   Mostly Cloudy
10:30 AM 68.0 °F 53.6 °F 60% 30.27 in 6.2 mi SSE 4.6 mph - N/A   Mostly Cloudy
11:00 AM 68.0 °F 55.4 °F 64% 30.24 in 6.2 mi South 4.6 mph - N/A   Mostly Cloudy
11:30 AM 71.6 °F 53.6 °F 53% 30.24 in 6.2 mi ESE 6.9 mph - N/A   Mostly Cloudy
12:00 PM 73.4 °F 53.6 °F 50% 30.21 in 6.2 mi ESE 10.4 mph - N/A   Mostly Cloudy
12:30 PM 73.4 °F 53.6 °F 50% 30.21 in 6.2 mi ENE 4.6 mph - N/A   Mostly Cloudy
1:00 PM 73.4 °F 53.6 °F 50% 30.18 in 6.2 mi East 8.1 mph - N/A   Mostly Cloudy
1:30 PM 73.4 °F 53.6 °F 50% 30.18 in 6.2 mi ENE 4.6 mph - N/A   Mostly Cloudy
2:00 PM 75.2 °F 53.6 °F 47% 30.15 in 6.2 mi SE 11.5 mph - N/A   Mostly Cloudy
2:30 PM 77.0 °F 53.6 °F 44% 30.15 in 6.2 mi ESE 9.2 mph - N/A   Mostly Cloudy
3:00 PM 76 °F 52 °F 32%  in 19 mi East 6.9 mph - -   Mostly Cloudy
3:00 PM 75.2 °F 51.8 °F 44% 30.12 in 6.2 mi East 6.9 mph - N/A   Mostly Cloudy
3:30 PM 78.8 °F 53.6 °F 42% 30.12 in 6.2 mi East 8.1 mph - N/A   Mostly Cloudy
4:00 PM 75.2 °F 51.8 °F 44% 30.12 in 6.2 mi ENE 8.1 mph - N/A   Mostly Cloudy
4:30 PM 77.0 °F 51.8 °F 41% 30.12 in 6.2 mi SSE 10.4 mph - N/A   Mostly Cloudy
5:00 PM 77.0 °F 51.8 °F 41% 30.12 in 6.2 mi ESE 13.8 mph - N/A   Mostly Cloudy
5:30 PM 73.4 °F 53.6 °F 50% 30.12 in 6.2 mi East 17.3 mph - N/A   Mostly Cloudy
6:00 PM 73.4 °F 51.8 °F 47% 30.12 in 6.2 mi East 13.8 mph - N/A   Scattered Clouds
6:30 PM 71.6 °F 53.6 °F 53% 30.12 in 6.2 mi East 15.0 mph - N/A   Scattered Clouds
7:00 PM 69.8 °F 53.6 °F 56% 30.15 in 6.2 mi East 16.1 mph - N/A   Scattered Clouds
7:30 PM 66.2 °F 51.8 °F 60% 30.15 in 6.2 mi East 12.7 mph - N/A   Scattered Clouds
8:00 PM 66.2 °F 53.6 °F 64% 30.18 in 6.2 mi East 9.2 mph - N/A   Scattered Clouds
8:30 PM 64.4 °F 53.6 °F 68% 30.18 in 6.2 mi SE 5.8 mph - N/A   Scattered Clouds
9:00 PM 65 °F 54 °F 59%  in 19 mi SE 6.9 mph - -   Mostly Cloudy
9:00 PM 64.4 °F 53.6 °F 68% 30.18 in 6.2 mi SE 6.9 mph - N/A   Mostly Cloudy
9:30 PM 64.4 °F 53.6 °F 68% 30.18 in 6.2 mi SSE 10.4 mph - N/A   Mostly Cloudy
10:00 PM 64.4 °F 53.6 °F 68% 30.21 in 6.2 mi SSE 8.1 mph - N/A   Mostly Cloudy
11:00 PM 62.6 °F 53.6 °F 72% 30.24 in 6.2 mi South 6.9 mph - N/A   Mostly Cloudy
11:30 PM 59.0 °F 53.6 °F 82% 30.24 in 6.2 mi SSW 3.5 mph - N/A   Partly Cloudy